Oakdale, LA

1:28 AM CST on November 21, 2017 (GMT -0600)
Oakdale

Weather History for KACP - July, 2014

Change the Weather History Date:

Thursday, July 3, 2014

  Actual Average (KPOE) Record (KPOE)
Temperature  
Mean Temperature 78 °F -  
Max Temperature 90 °F 88 °F 99 °F (2011)
Min Temperature 67 °F 71 °F 68 °F (2005)
Cooling Degree Days 14    
Growing Degree Days 28 (Base 50)    
Moisture  
Dew Point 70 °F    
Average Humidity 79    
Maximum Humidity 96    
Minimum Humidity 56    
Precipitation  
Precipitation 0.00 in - - ()
Sea Level Pressure  
Sea Level Pressure 30.09 in    
Wind  
Wind Speed 2 mph (NNE)    
Max Wind Speed 9 mph    
Max Gust Speed -    
Visibility 9 miles    
Events Thunderstorm    
Averages and records for this station are not official NWS values.
T = Trace of Precipitation, MM = Missing Value Source: NWS Daily Summary

Daily Weather History Graph

Daily Weather History Graph

Search for Another Location

Airport or City:

Trip Planner

Search our weather history database for the weather conditions in past years. The results will help you decide how hot, cold, wet, or windy it might be!

Date:

Astronomy

Jul. 03, 2014 Rise Set
Actual Time 6:12 AM CDT 8:17 PM CDT
Civil Twilight 5:44 AM CDT 8:45 PM CDT
Nautical Twilight 5:11 AM CDT 9:18 PM CDT
Astronomical Twilight 4:35 AM CDT 9:54 PM CDT
Moon 11:47 AM CDT (7/3) No Moon Set
Length of Visible Light 15h 00m
Length of Day
14h 05m
Waxing Crescent, 33% of the Moon is Illuminated
Jul 3
Waxing Crescent
Jul 5
First Quarter
Jul 12
Full
Jul 18
Last Quarter
Jul 26
New

Hourly Weather History & Observations

Time (CDT) Temp. Heat Index Dew Point Humidity Pressure Visibility Wind Dir Wind Speed Gust Speed Precip Events Conditions
12:15 AM 69.8 °F - 68.2 °F 95% 30.06 in 7.0 mi Calm Calm - N/A   Clear
12:35 AM 69.3 °F - 67.8 °F 95% 30.06 in 5.0 mi Calm Calm - N/A   Clear
12:55 AM 68.9 °F - 67.5 °F 95% 30.05 in 5.0 mi SSW 3.5 mph - N/A   Clear
1:15 AM 68.9 °F - 67.5 °F 95% 30.05 in 5.0 mi Calm Calm - N/A   Clear
1:35 AM 68.5 °F - 67.3 °F 96% 30.04 in 5.0 mi Calm Calm - N/A   Clear
1:55 AM 68.4 °F - 67.1 °F 96% 30.04 in 5.0 mi Calm Calm - N/A   Clear
2:15 AM 68.9 °F - 67.5 °F 95% 30.04 in 7.0 mi Calm Calm - N/A   Clear
2:35 AM 68.4 °F - 67.1 °F 96% 30.04 in 5.0 mi Calm Calm - N/A   Clear
2:55 AM 68.0 °F - 66.7 °F 96% 30.04 in 4.0 mi Calm Calm - N/A   Clear
3:15 AM 68.2 °F - 66.9 °F 96% 30.04 in 7.0 mi Calm Calm - N/A   Clear
3:35 AM 68.4 °F - 67.1 °F 96% 30.05 in 7.0 mi NNW 4.6 mph - N/A   Clear
3:55 AM 68.2 °F - 66.9 °F 96% 30.03 in 7.0 mi Calm Calm - N/A   Clear
4:15 AM 68.2 °F - 66.9 °F 96% 30.04 in 7.0 mi Calm Calm - N/A   Clear
4:35 AM 68.5 °F - 66.9 °F 95% 30.03 in 10.0 mi Calm Calm - N/A   Clear
5:15 AM 68.0 °F - 66.4 °F 95% 30.05 in 10.0 mi Calm Calm - N/A   Clear
5:35 AM 68.0 °F - 66.4 °F 95% 30.05 in 10.0 mi Calm Calm - N/A   Clear
5:55 AM 67.5 °F - 66.2 °F 96% 30.06 in 7.0 mi Calm Calm - N/A   Clear
6:15 AM 68.2 °F - 66.7 °F 95% 30.07 in 7.0 mi Calm Calm - N/A   Clear
6:35 AM 68.9 °F - 67.3 °F 95% 30.07 in 7.0 mi Calm Calm - N/A   Clear
6:55 AM 69.8 °F - 67.8 °F 93% 30.08 in 10.0 mi Calm Calm - N/A   Clear
7:15 AM 70.2 °F - 68.2 °F 93% 30.09 in 7.0 mi Calm Calm - N/A   Clear
7:35 AM 70.7 °F - 68.5 °F 93% 30.10 in 10.0 mi Calm Calm - N/A   Clear
7:55 AM 71.6 °F - 69.1 °F 92% 30.10 in 10.0 mi Calm Calm - N/A   Clear
8:15 AM 72.1 °F - 69.8 °F 92% 30.11 in 10.0 mi Calm Calm - N/A   Clear
8:35 AM 73.4 °F - 69.8 °F 88% 30.12 in 10.0 mi Calm Calm - N/A   Clear
8:55 AM 75.4 °F - 70.5 °F 85% 30.12 in 10.0 mi Calm Calm - N/A   Clear
9:15 AM 77.0 °F - 69.4 °F 77% 30.12 in 10.0 mi NNW 4.6 mph - N/A   Clear
9:35 AM 77.5 °F - 70.0 °F 77% 30.13 in 10.0 mi Calm Calm - N/A   Clear
9:55 AM 79.9 °F - 71.4 °F 75% 30.12 in 10.0 mi Calm Calm - N/A   Clear
10:15 AM 82.6 °F 86.8 °F 70.5 °F 67% 30.12 in 10.0 mi Calm Calm - N/A   Clear
10:35 AM 83.3 °F 87.6 °F 70.5 °F 65% 30.13 in 10.0 mi North 3.5 mph - N/A   Clear
11:15 AM 84.9 °F 89.7 °F 70.5 °F 62% 30.13 in 10.0 mi NE 4.6 mph - N/A   Clear
11:35 AM 85.1 °F 90.4 °F 71.1 °F 63% 30.13 in 10.0 mi NE 4.6 mph - N/A   Clear
11:55 AM 86.4 °F 93.4 °F 73.0 °F 64% 30.12 in 10.0 mi ENE 4.6 mph - N/A   Clear
12:15 PM 87.3 °F 94.5 °F 72.7 °F 62% 30.12 in 10.0 mi Calm Calm - N/A   Clear
12:35 PM 87.6 °F 94.3 °F 72.3 °F 60% 30.11 in 10.0 mi North 3.5 mph - N/A   Clear
12:55 PM 88.3 °F 95.4 °F 72.5 °F 59% 30.11 in 10.0 mi NE 5.8 mph - N/A   Scattered Clouds
1:15 PM 88.3 °F 96.4 °F 73.6 °F 61% 30.10 in 10.0 mi NE 3.5 mph - N/A   Scattered Clouds
1:35 PM 89.2 °F 97.9 °F 73.6 °F 60% 30.10 in 10.0 mi North 4.6 mph - N/A   Scattered Clouds
1:55 PM 88.3 °F 95.9 °F 72.9 °F 60% 30.09 in 10.0 mi NNE 4.6 mph - N/A   Mostly Cloudy
2:15 PM 88.5 °F 97.3 °F 74.1 °F 62% 30.09 in 10.0 mi North 3.5 mph - N/A   Mostly Cloudy
2:35 PM 88.5 °F 97.3 °F 73.9 °F 62% 30.08 in 10.0 mi NE 6.9 mph - N/A   Mostly Cloudy
2:55 PM 90.1 °F 98.9 °F 73.4 °F 58% 30.08 in 10.0 mi NE 6.9 mph - N/A   Scattered Clouds
3:15 PM 89.1 °F 97.5 °F 73.8 °F 60% 30.07 in 10.0 mi NE 5.8 mph - N/A   Mostly Cloudy
3:35 PM 90.3 °F 99.3 °F 73.9 °F 58% 30.07 in 10.0 mi NE 6.9 mph - N/A   Mostly Cloudy
3:55 PM 90.9 °F 100.6 °F 74.5 °F 58% 30.06 in 10.0 mi NE 5.8 mph - N/A   Scattered Clouds
4:15 PM 90.7 °F 99.0 °F 73.2 °F 56% 30.06 in 10.0 mi NE 5.8 mph - N/A   Scattered Clouds
4:35 PM 90.5 °F 99.2 °F 73.2 °F 57% 30.05 in 10.0 mi ENE 4.6 mph - N/A   Scattered Clouds
4:55 PM 90.7 °F 99.0 °F 73.2 °F 56% 30.05 in 10.0 mi ENE 4.6 mph - N/A   Clear
5:15 PM 90.1 °F 98.9 °F 73.8 °F 58% 30.04 in 10.0 mi NE 5.8 mph - N/A   Clear
5:35 PM 90.3 °F 100.4 °F 74.8 °F 60% 30.04 in 10.0 mi ENE 4.6 mph - N/A   Clear
5:55 PM 89.8 °F 98.1 °F 73.4 °F 58% 30.03 in 10.0 mi ENE 5.8 mph - N/A   Clear
6:15 PM 89.1 °F 96.5 °F 72.7 °F 58% 30.05 in 10.0 mi NE 4.6 mph - N/A   Clear
6:35 PM 87.4 °F 95.3 °F 73.6 °F 63% 30.05 in 10.0 mi Calm Calm - N/A   Clear
6:55 PM 82.6 °F 90.2 °F 75.9 °F 80% 30.07 in 10.0 mi Calm Calm - N/A Thunderstorm Clear
7:15 PM 80.1 °F 85.5 °F 76.1 °F 88% 30.08 in 10.0 mi Calm Calm - N/A Thunderstorm Clear
7:35 PM 80.6 °F 84.9 °F 72.3 °F 76% 30.10 in 10.0 mi WNW 9.2 mph - N/A Thunderstorm Thunderstorm
7:55 PM 78.3 °F - 69.6 °F 75% 30.10 in 10.0 mi WNW 3.5 mph - N/A   Clear
8:15 PM 76.1 °F - 68.7 °F 78% 30.11 in 10.0 mi WNW 5.8 mph - N/A   Clear
8:35 PM 74.5 °F - 68.7 °F 82% 30.12 in 10.0 mi Calm Calm - N/A Thunderstorm Clear
8:55 PM 74.3 °F - 69.1 °F 84% 30.12 in 10.0 mi WNW 4.6 mph - N/A   Clear
9:15 PM 74.3 °F - 68.4 °F 82% 30.13 in 10.0 mi West 4.6 mph - N/A Thunderstorm Clear
9:55 PM 73.8 °F - 67.1 °F 80% 30.13 in 10.0 mi WSW 4.6 mph - N/A   Clear
10:15 PM 72.9 °F - 67.5 °F 83% 30.13 in 10.0 mi Calm Calm - N/A   Clear
10:35 PM 72.3 °F - 68.0 °F 86% 30.13 in 10.0 mi NNW 3.5 mph - N/A   Clear
10:55 PM 72.5 °F - 67.8 °F 85% 30.14 in 10.0 mi Calm Calm - N/A   Clear
11:15 PM 71.8 °F - 68.2 °F 88% 30.15 in 10.0 mi North 5.8 mph - N/A   Clear
11:35 PM 71.2 °F - 68.4 °F 91% 30.14 in 10.0 mi North 5.8 mph - N/A   Clear
11:55 PM 71.6 °F - 68.5 °F 90% 30.14 in 10.0 mi Calm Calm - N/A   Clear